owner,sensor,date,latitude,longitude,vertical_datum,sea_water_temperature,qcFlag 
DISL,ioos:station:DISL:BSCA:1,2015-01-01T00:00:00Z,30.3288,-87.8293,0.0,68.16,2 
DISL,ioos:station:DISL:BSCA:1,2015-01-01T00:30:00Z,30.3288,-87.8293,0.0,64.7,2 
DISL,ioos:station:DISL:BSCA:1,2015-01-01T01:00:00Z,30.3288,-87.8293,0.0,63.29,2 
DISL,ioos:station:DISL:BSCA:1,2015-01-01T01:30:00Z,30.3288,-87.8293,0.0,69.11,2 
DISL,ioos:station:DISL:BSCA:1,2015-01-01T02:00:00Z,30.3288,-87.8293,0.0,70.65,2 
DISL,ioos:station:DISL:BSCA:1,2015-01-01T02:30:00Z,30.3288,-87.8293,0.0,70.19,2 
DISL,ioos:station:DISL:BSCA:1,2015-01-01T03:00:00Z,30.3288,-87.8293,0.0,13.96,2 
DISL,ioos:station:DISL:BSCA:1,2015-01-01T03:30:00Z,30.3288,-87.8293,0.0,70.43,2 
DISL,ioos:station:DISL:BSCA:1,2015-01-01T04:00:00Z,30.3288,-87.8293,0.0,61.41,2 
DISL,ioos:station:DISL:BSCA:1,2015-01-01T04:30:00Z,30.3288,-87.8293,0.0,65.42,2 
DISL,ioos:station:DISL:BSCA:1,2015-01-01T05:00:00Z,30.3288,-87.8293,0.0,13.75,2 
DISL,ioos:station:DISL:BSCA:1,2015-01-01T05:30:00Z,30.3288,-87.8293,0.0,60.75,2 
DISL,ioos:station:DISL:BSCA:1,2015-01-01T06:00:00Z,30.3288,-87.8293,0.0,66.19,2 
DISL,ioos:station:DISL:BSCA:1,2015-01-01T06:30:00Z,30.3288,-87.8293,0.0,66.19,2 
DISL,ioos:station:DISL:BSCA:1,2015-01-01T07:00:00Z,30.3288,-87.8293,0.0,67.67,2 
DISL,ioos:station:DISL:BSCA:1,2015-01-01T07:30:00Z,30.3288,-87.8293,0.0,63.82,2 
DISL,ioos:station:DISL:BSCA:1,2015-01-01T08:00:00Z,30.3288,-87.8293,0.0,13.61,2 
DISL,ioos:station:DISL:BSCA:1,2015-01-01T08:30:00Z,30.3288,-87.8293,0.0,72.47,2 
DISL,ioos:station:DISL:BSCA:1,2015-01-01T09:00:00Z,30.3288,-87.8293,0.0,65.46,2 
DISL,ioos:station:DISL:BSCA:1,2015-01-01T09:30:00Z,30.3288,-87.8293,0.0,69.28,2 
DISL,ioos:station:DISL:BSCA:1,2015-01-01T10:00:00Z,30.3288,-87.8293,0.0,68.66,2 
DISL,ioos:station:DISL:BSCA:1,2015-01-01T10:30:00Z,30.3288,-87.8293,0.0,68.3,2 
DISL,ioos:station:DISL:BSCA:1,2015-01-01T11:00:00Z,30.3288,-87.8293,0.0,68.38,2 
DISL,ioos:station:DISL:BSCA:1,2015-01-01T11:30:00Z,30.3288,-87.8293,0.0,13.44,2 
DISL,ioos:station:DISL:BSCA:1,2015-01-01T12:00:00Z,30.3288,-87.8293,0.0,67.68,2 
DISL,ioos:station:DISL:BSCA:1,2015-01-01T12:30:00Z,30.3288,-87.8293,0.0,69.87,2 
DISL,ioos:station:DISL:BSCA:1,2015-01-01T13:00:00Z,30.3288,-87.8293,0.0,65.24,2 
DISL,ioos:station:DISL:BSCA:1,2015-01-01T13:30:00Z,30.3288,-87.8293,0.0,52.84,2 
DISL,ioos:station:DISL:BSCA:1,2015-01-01T14:00:00Z,30.3288,-87.8293,0.0,50.39,2 
DISL,ioos:station:DISL:BSCA:1,2015-01-01T14:30:00Z,30.3288,-87.8293,0.0,58.07,2 
DISL,ioos:station:DISL:BSCA:1,2015-01-01T15:00:00Z,30.3288,-87.8293,0.0,51.49,2 
DISL,ioos:station:DISL:BSCA:1,2015-01-01T15:30:00Z,30.3288,-87.8293,0.0,58.23,2 
DISL,ioos:station:DISL:BSCA:1,2015-01-01T16:00:00Z,30.3288,-87.8293,0.0,56.46,2 
DISL,ioos:station:DISL:BSCA:1,2015-01-01T16:30:00Z,30.3288,-87.8293,0.0,65.79,2 
DISL,ioos:station:DISL:BSCA:1,2015-01-01T17:00:00Z,30.3288,-87.8293,0.0,64.73,2 
DISL,ioos:station:DISL:BSCA:1,2015-01-01T17:30:00Z,30.3288,-87.8293,0.0,66.62,2 
DISL,ioos:station:DISL:BSCA:1,2015-01-01T18:00:00Z,30.3288,-87.8293,0.0,60.79,2 
DISL,ioos:station:DISL:BSCA:1,2015-01-01T18:30:00Z,30.3288,-87.8293,0.0,63.91,2 
DISL,ioos:station:DISL:BSCA:1,2015-01-01T19:00:00Z,30.3288,-87.8293,0.0,65.24,2 
DISL,ioos:station:DISL:BSCA:1,2015-01-01T19:30:00Z,30.3288,-87.8293,0.0,70.73,2 
DISL,ioos:station:DISL:BSCA:1,2015-01-01T20:00:00Z,30.3288,-87.8293,0.0,66.08,2 
DISL,ioos:station:DISL:BSCA:1,2015-01-01T20:30:00Z,30.3288,-87.8293,0.0,64.65,2 
DISL,ioos:station:DISL:BSCA:1,2015-01-01T21:00:00Z,30.3288,-87.8293,0.0,66.83,2 
DISL,ioos:station:DISL:BSCA:1,2015-01-01T21:30:00Z,30.3288,-87.8293,0.0,67.66,2 
DISL,ioos:station:DISL:BSCA:1,2015-01-01T22:00:00Z,30.3288,-87.8293,0.0,68.55,2 
DISL,ioos:station:DISL:BSCA:1,2015-01-01T22:30:00Z,30.3288,-87.8293,0.0,67.02,2 
DISL,ioos:station:DISL:BSCA:1,2015-01-01T23:00:00Z,30.3288,-87.8293,0.0,64.16,2 
DISL,ioos:station:DISL:BSCA:1,2015-01-01T23:30:00Z,30.3288,-87.8293,0.0,60.73,2 
DISL,ioos:station:DISL:BSCA:1,2015-01-02T00:00:00Z,30.3288,-87.8293,0.0,75.42,2 
DISL,ioos:station:DISL:BSCA:1,2015-01-02T00:30:00Z,30.3288,-87.8293,0.0,77.48,2 
DISL,ioos:station:DISL:BSCA:1,2015-01-02T01:00:00Z,30.3288,-87.8293,0.0,75.24,2 
DISL,ioos:station:DISL:BSCA:1,2015-01-02T01:30:00Z,30.3288,-87.8293,0.0,76.18,2 
DISL,ioos:station:DISL:BSCA:1,2015-01-02T02:00:00Z,30.3288,-87.8293,0.0,78.34,2 
DISL,ioos:station:DISL:BSCA:1,2015-01-02T02:30:00Z,30.3288,-87.8293,0.0,75.86,2 
DISL,ioos:station:DISL:BSCA:1,2015-01-02T03:00:00Z,30.3288,-87.8293,0.0,66.36,2 
DISL,ioos:station:DISL:BSCA:1,2015-01-02T03:30:00Z,30.3288,-87.8293,0.0,74.93,2 
DISL,ioos:station:DISL:BSCA:1,2015-01-02T04:00:00Z,30.3288,-87.8293,0.0,75.22,2 
DISL,ioos:station:DISL:BSCA:1,2015-01-02T04:30:00Z,30.3288,-87.8293,0.0,72.59,2 
DISL,ioos:station:DISL:BSCA:1,2015-01-02T05:00:00Z,30.3288,-87.8293,0.0,69.91,2 
DISL,ioos:station:DISL:BSCA:1,2015-01-02T05:30:00Z,30.3288,-87.8293,0.0,58.63,2 
DISL,ioos:station:DISL:BSCA:1,2015-01-02T06:00:00Z,30.3288,-87.8293,0.0,57.02,2 
DISL,ioos:station:DISL:BSCA:1,2015-01-02T06:30:00Z,30.3288,-87.8293,0.0,53.8,2 
DISL,ioos:station:DISL:BSCA:1,2015-01-02T07:00:00Z,30.3288,-87.8293,0.0,63.71,2 
DISL,ioos:station:DISL:BSCA:1,2015-01-02T07:30:00Z,30.3288,-87.8293,0.0,63.08,2 
DISL,ioos:station:DISL:BSCA:1,2015-01-02T08:00:00Z,30.3288,-87.8293,0.0,66.78,2 
DISL,ioos:station:DISL:BSCA:1,2015-01-02T08:30:00Z,30.3288,-87.8293,0.0,65.55,2 
DISL,ioos:station:DISL:BSCA:1,2015-01-02T09:00:00Z,30.3288,-87.8293,0.0,66.98,2 
DISL,ioos:station:DISL:BSCA:1,2015-01-02T09:30:00Z,30.3288,-87.8293,0.0,64.4,2 
DISL,ioos:station:DISL:BSCA:1,2015-01-02T10:00:00Z,30.3288,-87.8293,0.0,53.52,2 
DISL,ioos:station:DISL:BSCA:1,2015-01-02T10:30:00Z,30.3288,-87.8293,0.0,65.15,2 
DISL,ioos:station:DISL:BSCA:1,2015-01-02T11:00:00Z,30.3288,-87.8293,0.0,13.34,2 
DISL,ioos:station:DISL:BSCA:1,2015-01-02T11:30:00Z,30.3288,-87.8293,0.0,13.33,2 
DISL,ioos:station:DISL:BSCA:1,2015-01-02T12:00:00Z,30.3288,-87.8293,0.0,64.62,2 
DISL,ioos:station:DISL:BSCA:1,2015-01-02T12:30:00Z,30.3288,-87.8293,0.0,67.76,2 
DISL,ioos:station:DISL:BSCA:1,2015-01-02T13:00:00Z,30.3288,-87.8293,0.0,65.28,2 
DISL,ioos:station:DISL:BSCA:1,2015-01-02T13:30:00Z,30.3288,-87.8293,0.0,67.8,2 
DISL,ioos:station:DISL:BSCA:1,2015-01-02T14:00:00Z,30.3288,-87.8293,0.0,67.13,2 
DISL,ioos:station:DISL:BSCA:1,2015-01-02T14:30:00Z,30.3288,-87.8293,0.0,59.09,2 
DISL,ioos:station:DISL:BSCA:1,2015-01-02T15:00:00Z,30.3288,-87.8293,0.0,70.12,2 
DISL,ioos:station:DISL:BSCA:1,2015-01-02T15:30:00Z,30.3288,-87.8293,0.0,72.65,2 
DISL,ioos:station:DISL:BSCA:1,2015-01-02T16:00:00Z,30.3288,-87.8293,0.0,70.95,2 
DISL,ioos:station:DISL:BSCA:1,2015-01-02T16:30:00Z,30.3288,-87.8293,0.0,73.39,2 
DISL,ioos:station:DISL:BSCA:1,2015-01-02T17:00:00Z,30.3288,-87.8293,0.0,70.88,2 
DISL,ioos:station:DISL:BSCA:1,2015-01-02T17:30:00Z,30.3288,-87.8293,0.0,70.07,2 
DISL,ioos:station:DISL:BSCA:1,2015-01-02T18:00:00Z,30.3288,-87.8293,0.0,68.38,2 
DISL,ioos:station:DISL:BSCA:1,2015-01-02T18:30:00Z,30.3288,-87.8293,0.0,69.07,2 
DISL,ioos:station:DISL:BSCA:1,2015-01-02T19:00:00Z,30.3288,-87.8293,0.0,67.99,2 
DISL,ioos:station:DISL:BSCA:1,2015-01-02T19:30:00Z,30.3288,-87.8293,0.0,67.18,2 
DISL,ioos:station:DISL:BSCA:1,2015-01-02T20:00:00Z,30.3288,-87.8293,0.0,59.83,2 
DISL,ioos:station:DISL:BSCA:1,2015-01-02T20:30:00Z,30.3288,-87.8293,0.0,68.02,2 
DISL,ioos:station:DISL:BSCA:1,2015-01-02T21:00:00Z,30.3288,-87.8293,0.0,72.18,2 
DISL,ioos:station:DISL:BSCA:1,2015-01-02T21:30:00Z,30.3288,-87.8293,0.0,75.27,2 
DISL,ioos:station:DISL:BSCA:1,2015-01-02T22:00:00Z,30.3288,-87.8293,0.0,68.91,2 
DISL,ioos:station:DISL:BSCA:1,2015-01-02T22:30:00Z,30.3288,-87.8293,0.0,67.85,2 
DISL,ioos:station:DISL:BSCA:1,2015-01-02T23:00:00Z,30.3288,-87.8293,0.0,62.7,2 
DISL,ioos:station:DISL:BSCA:1,2015-01-02T23:30:00Z,30.3288,-87.8293,0.0,62.48,2 
DISL,ioos:station:DISL:BSCA:1,2015-01-03T00:00:00Z,30.3288,-87.8293,0.0,54.42,2 
DISL,ioos:station:DISL:BSCA:1,2015-01-03T00:30:00Z,30.3288,-87.8293,0.0,58.83,2 
DISL,ioos:station:DISL:BSCA:1,2015-01-03T01:00:00Z,30.3288,-87.8293,0.0,61.69,2 
DISL,ioos:station:DISL:BSCA:1,2015-01-03T01:30:00Z,30.3288,-87.8293,0.0,64.25,2 
DISL,ioos:station:DISL:BSCA:1,2015-01-03T02:00:00Z,30.3288,-87.8293,0.0,65.37,2 
DISL,ioos:station:DISL:BSCA:1,2015-01-03T02:30:00Z,30.3288,-87.8293,0.0,66.82,2 
DISL,ioos:station:DISL:BSCA:1,2015-01-03T03:00:00Z,30.3288,-87.8293,0.0,73.94,2 
DISL,ioos:station:DISL:BSCA:1,2015-01-03T03:30:00Z,30.3288,-87.8293,0.0,70.43,2 
DISL,ioos:station:DISL:BSCA:1,2015-01-03T04:00:00Z,30.3288,-87.8293,0.0,72.56,2 
DISL,ioos:station:DISL:BSCA:1,2015-01-03T04:30:00Z,30.3288,-87.8293,0.0,75.83,2 
DISL,ioos:station:DISL:BSCA:1,2015-01-03T05:00:00Z,30.3288,-87.8293,0.0,60.21,2 
DISL,ioos:station:DISL:BSCA:1,2015-01-03T05:30:00Z,30.3288,-87.8293,0.0,59.68,2 
DISL,ioos:station:DISL:BSCA:1,2015-01-03T06:00:00Z,30.3288,-87.8293,0.0,58.3,2 
DISL,ioos:station:DISL:BSCA:1,2015-01-03T06:30:00Z,30.3288,-87.8293,0.0,68.02,2 
DISL,ioos:station:DISL:BSCA:1,2015-01-03T07:00:00Z,30.3288,-87.8293,0.0,62.7,2 
DISL,ioos:station:DISL:BSCA:1,2015-01-03T07:30:00Z,30.3288,-87.8293,0.0,57.39,2 
DISL,ioos:station:DISL:BSCA:1,2015-01-03T08:00:00Z,30.3288,-87.8293,0.0,64.83,2 
DISL,ioos:station:DISL:BSCA:1,2015-01-03T08:30:00Z,30.3288,-87.8293,0.0,57.87,2 
DISL,ioos:station:DISL:BSCA:1,2015-01-03T09:00:00Z,30.3288,-87.8293,0.0,57.69,2 
DISL,ioos:station:DISL:BSCA:1,2015-01-03T09:30:00Z,30.3288,-87.8293,0.0,63.61,2 
DISL,ioos:station:DISL:BSCA:1,2015-01-03T10:00:00Z,30.3288,-87.8293,0.0,71.25,2 
DISL,ioos:station:DISL:BSCA:1,2015-01-03T10:30:00Z,30.3288,-87.8293,0.0,68.52,2 
DISL,ioos:station:DISL:BSCA:1,2015-01-03T11:00:00Z,30.3288,-87.8293,0.0,64.23,2 
DISL,ioos:station:DISL:BSCA:1,2015-01-03T11:30:00Z,30.3288,-87.8293,0.0,57.22,2 
DISL,ioos:station:DISL:BSCA:1,2015-01-03T12:00:00Z,30.3288,-87.8293,0.0,55.58,2 
DISL,ioos:station:DISL:BSCA:1,2015-01-03T12:30:00Z,30.3288,-87.8293,0.0,59.42,2 
DISL,ioos:station:DISL:BSCA:1,2015-01-03T13:00:00Z,30.3288,-87.8293,0.0,61.4,2 
DISL,ioos:station:DISL:BSCA:1,2015-01-03T13:30:00Z,30.3288,-87.8293,0.0,68.01,2 
DISL,ioos:station:DISL:BSCA:1,2015-01-03T14:00:00Z,30.3288,-87.8293,0.0,63.06,2 
DISL,ioos:station:DISL:BSCA:1,2015-01-03T14:30:00Z,30.3288,-87.8293,0.0,64.72,2 
DISL,ioos:station:DISL:BSCA:1,2015-01-03T15:00:00Z,30.3288,-87.8293,0.0,63.74,2 
DISL,ioos:station:DISL:BSCA:1,2015-01-03T15:30:00Z,30.3288,-87.8293,0.0,65.77,2 
DISL,ioos:station:DISL:BSCA:1,2015-01-03T16:00:00Z,30.3288,-87.8293,0.0,68.85,2 
DISL,ioos:station:DISL:BSCA:1,2015-01-03T16:30:00Z,30.3288,-87.8293,0.0,66.22,2 
DISL,ioos:station:DISL:BSCA:1,2015-01-03T17:00:00Z,30.3288,-87.8293,0.0,74.72,2 
DISL,ioos:station:DISL:BSCA:1,2015-01-03T17:30:00Z,30.3288,-87.8293,0.0,73.99,2 
DISL,ioos:station:DISL:BSCA:1,2015-01-03T18:00:00Z,30.3288,-87.8293,0.0,76.64,2 
DISL,ioos:station:DISL:BSCA:1,2015-01-03T18:30:00Z,30.3288,-87.8293,0.0,65.73,2 
DISL,ioos:station:DISL:BSCA:1,2015-01-03T19:00:00Z,30.3288,-87.8293,0.0,62.57,2 
DISL,ioos:station:DISL:BSCA:1,2015-01-03T19:30:00Z,30.3288,-87.8293,0.0,63.85,2 
DISL,ioos:station:DISL:BSCA:1,2015-01-03T20:00:00Z,30.3288,-87.8293,0.0,65.37,2 
DISL,ioos:station:DISL:BSCA:1,2015-01-03T20:30:00Z,30.3288,-87.8293,0.0,66.23,2 
DISL,ioos:station:DISL:BSCA:1,2015-01-03T21:00:00Z,30.3288,-87.8293,0.0,80.1,2 
DISL,ioos:station:DISL:BSCA:1,2015-01-03T21:30:00Z,30.3288,-87.8293,0.0,75.92,2 
DISL,ioos:station:DISL:BSCA:1,2015-01-03T22:00:00Z,30.3288,-87.8293,0.0,63.12,2 
DISL,ioos:station:DISL:BSCA:1,2015-01-03T22:30:00Z,30.3288,-87.8293,0.0,63.65,2 
DISL,ioos:station:DISL:BSCA:1,2015-01-03T23:00:00Z,30.3288,-87.8293,0.0,59.27,2 
DISL,ioos:station:DISL:BSCA:1,2015-01-03T23:30:00Z,30.3288,-87.8293,0.0,72.83,2 
DISL,ioos:station:DISL:BSCA:1,2015-01-04T00:00:00Z,30.3288,-87.8293,0.0,59.73,2 
DISL,ioos:station:DISL:BSCA:1,2015-01-04T00:30:00Z,30.3288,-87.8293,0.0,61.15,2 
DISL,ioos:station:DISL:BSCA:1,2015-01-04T01:00:00Z,30.3288,-87.8293,0.0,15.65,2 
DISL,ioos:station:DISL:BSCA:1,2015-01-04T01:30:00Z,30.3288,-87.8293,0.0,71.22,2 
DISL,ioos:station:DISL:BSCA:1,2015-01-04T02:00:00Z,30.3288,-87.8293,0.0,62.68,2 
DISL,ioos:station:DISL:BSCA:1,2015-01-04T02:30:00Z,30.3288,-87.8293,0.0,71.96,2 
DISL,ioos:station:DISL:BSCA:1,2015-01-04T03:00:00Z,30.3288,-87.8293,0.0,64.78,2 
DISL,ioos:station:DISL:BSCA:1,2015-01-04T03:30:00Z,30.3288,-87.8293,0.0,62.52,2 
DISL,ioos:station:DISL:BSCA:1,2015-01-04T04:00:00Z,30.3288,-87.8293,0.0,62.36,2 
DISL,ioos:station:DISL:BSCA:1,2015-01-04T04:30:00Z,30.3288,-87.8293,0.0,65.89,2 
DISL,ioos:station:DISL:BSCA:1,2015-01-04T05:00:00Z,30.3288,-87.8293,0.0,61.69,2 
DISL,ioos:station:DISL:BSCA:1,2015-01-04T05:30:00Z,30.3288,-87.8293,0.0,62.53,2 
DISL,ioos:station:DISL:BSCA:1,2015-01-04T06:00:00Z,30.3288,-87.8293,0.0,67.71,2 
DISL,ioos:station:DISL:BSCA:1,2015-01-04T06:30:00Z,30.3288,-87.8293,0.0,70.62,2 
DISL,ioos:station:DISL:BSCA:1,2015-01-04T07:00:00Z,30.3288,-87.8293,0.0,68.63,2 
DISL,ioos:station:DISL:BSCA:1,2015-01-04T07:30:00Z,30.3288,-87.8293,0.0,71.42,2 
DISL,ioos:station:DISL:BSCA:1,2015-01-04T08:00:00Z,30.3288,-87.8293,0.0,71.75,2 
DISL,ioos:station:DISL:BSCA:1,2015-01-04T08:30:00Z,30.3288,-87.8293,0.0,67.5,2 
DISL,ioos:station:DISL:BSCA:1,2015-01-04T09:00:00Z,30.3288,-87.8293,0.0,68.32,2 
DISL,ioos:station:DISL:BSCA:1,2015-01-04T09:30:00Z,30.3288,-87.8293,0.0,68.73,2 
DISL,ioos:station:DISL:BSCA:1,2015-01-04T10:00:00Z,30.3288,-87.8293,0.0,72.02,2 
DISL,ioos:station:DISL:BSCA:1,2015-01-04T10:30:00Z,30.3288,-87.8293,0.0,71.5,2 
DISL,ioos:station:DISL:BSCA:1,2015-01-04T11:00:00Z,30.3288,-87.8293,0.0,69.54,2 
DISL,ioos:station:DISL:BSCA:1,2015-01-04T11:30:00Z,30.3288,-87.8293,0.0,70.03,2 
DISL,ioos:station:DISL:BSCA:1,2015-01-04T12:00:00Z,30.3288,-87.8293,0.0,71.28,2 
DISL,ioos:station:DISL:BSCA:1,2015-01-04T12:30:00Z,30.3288,-87.8293,0.0,70.52,2 
DISL,ioos:station:DISL:BSCA:1,2015-01-04T13:00:00Z,30.3288,-87.8293,0.0,60.68,2 
DISL,ioos:station:DISL:BSCA:1,2015-01-04T13:30:00Z,30.3288,-87.8293,0.0,57.39,2 
DISL,ioos:station:DISL:BSCA:1,2015-01-04T14:00:00Z,30.3288,-87.8293,0.0,67.05,2 
DISL,ioos:station:DISL:BSCA:1,2015-01-04T14:30:00Z,30.3288,-87.8293,0.0,59.15,2 
DISL,ioos:station:DISL:BSCA:1,2015-01-04T15:00:00Z,30.3288,-87.8293,0.0,60.42,2 
DISL,ioos:station:DISL:BSCA:1,2015-01-04T15:30:00Z,30.3288,-87.8293,0.0,59.52,2 
DISL,ioos:station:DISL:BSCA:1,2015-01-04T16:00:00Z,30.3288,-87.8293,0.0,59.83,2 
DISL,ioos:station:DISL:BSCA:1,2015-01-04T16:30:00Z,30.3288,-87.8293,0.0,59.59,2 
DISL,ioos:station:DISL:BSCA:1,2015-01-04T17:00:00Z,30.3288,-87.8293,0.0,54.86,2 
DISL,ioos:station:DISL:BSCA:1,2015-01-04T17:30:00Z,30.3288,-87.8293,0.0,58.33,2 
DISL,ioos:station:DISL:BSCA:1,2015-01-04T18:00:00Z,30.3288,-87.8293,0.0,55.47,2 
DISL,ioos:station:DISL:BSCA:1,2015-01-04T18:30:00Z,30.3288,-87.8293,0.0,59.82,2 
DISL,ioos:station:DISL:BSCA:1,2015-01-04T19:00:00Z,30.3288,-87.8293,0.0,59.23,2 
DISL,ioos:station:DISL:BSCA:1,2015-01-04T19:30:00Z,30.3288,-87.8293,0.0,58.03,2 
DISL,ioos:station:DISL:BSCA:1,2015-01-04T20:00:00Z,30.3288,-87.8293,0.0,56.68,2 
DISL,ioos:station:DISL:BSCA:1,2015-01-04T20:30:00Z,30.3288,-87.8293,0.0,58.2,2 
DISL,ioos:station:DISL:BSCA:1,2015-01-04T21:00:00Z,30.3288,-87.8293,0.0,57.96,2 
DISL,ioos:station:DISL:BSCA:1,2015-01-04T21:30:00Z,30.3288,-87.8293,0.0,53.45,2 
DISL,ioos:station:DISL:BSCA:1,2015-01-04T22:00:00Z,30.3288,-87.8293,0.0,57.01,2 
DISL,ioos:station:DISL:BSCA:1,2015-01-04T22:30:00Z,30.3288,-87.8293,0.0,56.12,2 
DISL,ioos:station:DISL:BSCA:1,2015-01-04T23:00:00Z,30.3288,-87.8293,0.0,16.03,2 
DISL,ioos:station:DISL:BSCA:1,2015-01-04T23:30:00Z,30.3288,-87.8293,0.0,16.02,2 
DISL,ioos:station:DISL:BSCA:1,2015-01-05T00:00:00Z,30.3288,-87.8293,0.0,59.82,2 
DISL,ioos:station:DISL:BSCA:1,2015-01-05T00:30:00Z,30.3288,-87.8293,0.0,60.41,2 
DISL,ioos:station:DISL:BSCA:1,2015-01-05T01:00:00Z,30.3288,-87.8293,0.0,52.34,2 
DISL,ioos:station:DISL:BSCA:1,2015-01-05T01:30:00Z,30.3288,-87.8293,0.0,56.6,2 
DISL,ioos:station:DISL:BSCA:1,2015-01-05T02:00:00Z,30.3288,-87.8293,0.0,62.14,2 
DISL,ioos:station:DISL:BSCA:1,2015-01-05T02:30:00Z,30.3288,-87.8293,0.0,62.67,2 
DISL,ioos:station:DISL:BSCA:1,2015-01-05T03:00:00Z,30.3288,-87.8293,0.0,60.28,2 
DISL,ioos:station:DISL:BSCA:1,2015-01-05T03:30:00Z,30.3288,-87.8293,0.0,60.73,2 
DISL,ioos:station:DISL:BSCA:1,2015-01-05T04:00:00Z,30.3288,-87.8293,0.0,62.37,2 
DISL,ioos:station:DISL:BSCA:1,2015-01-05T04:30:00Z,30.3288,-87.8293,0.0,62.57,2 
DISL,ioos:station:DISL:BSCA:1,2015-01-05T05:00:00Z,30.3288,-87.8293,0.0,63.07,2 
DISL,ioos:station:DISL:BSCA:1,2015-01-05T05:30:00Z,30.3288,-87.8293,0.0,61.01,2 
DISL,ioos:station:DISL:BSCA:1,2015-01-05T06:00:00Z,30.3288,-87.8293,0.0,61.02,2 
DISL,ioos:station:DISL:BSCA:1,2015-01-05T06:30:00Z,30.3288,-87.8293,0.0,61.15,2 
DISL,ioos:station:DISL:BSCA:1,2015-01-05T07:00:00Z,30.3288,-87.8293,0.0,59.23,2 
DISL,ioos:station:DISL:BSCA:1,2015-01-05T07:30:00Z,30.3288,-87.8293,0.0,59.05,2 
DISL,ioos:station:DISL:BSCA:1,2015-01-05T08:00:00Z,30.3288,-87.8293,0.0,64.17,2 
DISL,ioos:station:DISL:BSCA:1,2015-01-05T08:30:00Z,30.3288,-87.8293,0.0,64.33,2 
DISL,ioos:station:DISL:BSCA:1,2015-01-05T09:00:00Z,30.3288,-87.8293,0.0,63.09,2 
DISL,ioos:station:DISL:BSCA:1,2015-01-05T09:30:00Z,30.3288,-87.8293,0.0,63.48,2 
DISL,ioos:station:DISL:BSCA:1,2015-01-05T10:00:00Z,30.3288,-87.8293,0.0,63.8,2 
DISL,ioos:station:DISL:BSCA:1,2015-01-05T10:30:00Z,30.3288,-87.8293,0.0,66.13,2 
DISL,ioos:station:DISL:BSCA:1,2015-01-05T11:00:00Z,30.3288,-87.8293,0.0,64.07,2 
DISL,ioos:station:DISL:BSCA:1,2015-01-05T11:30:00Z,30.3288,-87.8293,0.0,64.15,2 
DISL,ioos:station:DISL:BSCA:1,2015-01-05T12:00:00Z,30.3288,-87.8293,0.0,64.29,2 
DISL,ioos:station:DISL:BSCA:1,2015-01-05T12:30:00Z,30.3288,-87.8293,0.0,64.13,2 
DISL,ioos:station:DISL:BSCA:1,2015-01-05T13:00:00Z,30.3288,-87.8293,0.0,65.1,2 
DISL,ioos:station:DISL:BSCA:1,2015-01-05T13:30:00Z,30.3288,-87.8293,0.0,60.45,2 
DISL,ioos:station:DISL:BSCA:1,2015-01-05T14:00:00Z,30.3288,-87.8293,0.0,63.15,2 
DISL,ioos:station:DISL:BSCA:1,2015-01-05T14:30:00Z,30.3288,-87.8293,0.0,65.46,2 
DISL,ioos:station:DISL:BSCA:1,2015-01-05T15:00:00Z,30.3288,-87.8293,0.0,63.56,2 
DISL,ioos:station:DISL:BSCA:1,2015-01-05T15:30:00Z,30.3288,-87.8293,0.0,64.53,2 
DISL,ioos:station:DISL:BSCA:1,2015-01-05T16:00:00Z,30.3288,-87.8293,0.0,64.15,2 
DISL,ioos:station:DISL:BSCA:1,2015-01-05T16:30:00Z,30.3288,-87.8293,0.0,64.44,2 
DISL,ioos:station:DISL:BSCA:1,2015-01-05T17:00:00Z,30.3288,-87.8293,0.0,64.03,2 
DISL,ioos:station:DISL:BSCA:1,2015-01-05T17:30:00Z,30.3288,-87.8293,0.0,61.87,2 
DISL,ioos:station:DISL:BSCA:1,2015-01-05T18:00:00Z,30.3288,-87.8293,0.0,49.18,2 
DISL,ioos:station:DISL:BSCA:1,2015-01-05T18:30:00Z,30.3288,-87.8293,0.0,55.84,2 
DISL,ioos:station:DISL:BSCA:1,2015-01-05T19:00:00Z,30.3288,-87.8293,0.0,63.15,2 
DISL,ioos:station:DISL:BSCA:1,2015-01-05T19:30:00Z,30.3288,-87.8293,0.0,63.4,2 
DISL,ioos:station:DISL:BSCA:1,2015-01-05T20:00:00Z,30.3288,-87.8293,0.0,59.3,2 
DISL,ioos:station:DISL:BSCA:1,2015-01-05T20:30:00Z,30.3288,-87.8293,0.0,66.63,2 
DISL,ioos:station:DISL:BSCA:1,2015-01-05T21:00:00Z,30.3288,-87.8293,0.0,66.73,2 
DISL,ioos:station:DISL:BSCA:1,2015-01-05T21:30:00Z,30.3288,-87.8293,0.0,65.64,2 
DISL,ioos:station:DISL:BSCA:1,2015-01-05T22:00:00Z,30.3288,-87.8293,0.0,64.64,2 
DISL,ioos:station:DISL:BSCA:1,2015-01-05T22:30:00Z,30.3288,-87.8293,0.0,59.26,2 
DISL,ioos:station:DISL:BSCA:1,2015-01-05T23:00:00Z,30.3288,-87.8293,0.0,59.99,2 
DISL,ioos:station:DISL:BSCA:1,2015-01-05T23:30:00Z,30.3288,-87.8293,0.0,77.3,2 
DISL,ioos:station:DISL:BSCA:1,2015-01-06T00:00:00Z,30.3288,-87.8293,0.0,72.61,2 
DISL,ioos:station:DISL:BSCA:1,2015-01-06T00:30:00Z,30.3288,-87.8293,0.0,76.96,2 
DISL,ioos:station:DISL:BSCA:1,2015-01-06T01:00:00Z,30.3288,-87.8293,0.0,76.84,2 
DISL,ioos:station:DISL:BSCA:1,2015-01-06T01:30:00Z,30.3288,-87.8293,0.0,77.3,2 
DISL,ioos:station:DISL:BSCA:1,2015-01-06T02:00:00Z,30.3288,-87.8293,0.0,76.41,2 
DISL,ioos:station:DISL:BSCA:1,2015-01-06T02:30:00Z,30.3288,-87.8293,0.0,76.92,2 
DISL,ioos:station:DISL:BSCA:1,2015-01-06T03:00:00Z,30.3288,-87.8293,0.0,77.37,2 
DISL,ioos:station:DISL:BSCA:1,2015-01-06T03:30:00Z,30.3288,-87.8293,0.0,74.58,2 
DISL,ioos:station:DISL:BSCA:1,2015-01-06T04:00:00Z,30.3288,-87.8293,0.0,75.31,2 
DISL,ioos:station:DISL:BSCA:1,2015-01-06T04:30:00Z,30.3288,-87.8293,0.0,73.72,2 
DISL,ioos:station:DISL:BSCA:1,2015-01-06T05:00:00Z,30.3288,-87.8293,0.0,72.5,2 
DISL,ioos:station:DISL:BSCA:1,2015-01-06T05:30:00Z,30.3288,-87.8293,0.0,76.02,2 
DISL,ioos:station:DISL:BSCA:1,2015-01-06T06:00:00Z,30.3288,-87.8293,0.0,74.2,2 
DISL,ioos:station:DISL:BSCA:1,2015-01-06T06:30:00Z,30.3288,-87.8293,0.0,73.88,2 
DISL,ioos:station:DISL:BSCA:1,2015-01-06T07:00:00Z,30.3288,-87.8293,0.0,73.73,2 
DISL,ioos:station:DISL:BSCA:1,2015-01-06T07:30:00Z,30.3288,-87.8293,0.0,72.31,2 
DISL,ioos:station:DISL:BSCA:1,2015-01-06T08:00:00Z,30.3288,-87.8293,0.0,73.69,2 
DISL,ioos:station:DISL:BSCA:1,2015-01-06T08:30:00Z,30.3288,-87.8293,0.0,74.27,2 
DISL,ioos:station:DISL:BSCA:1,2015-01-06T09:00:00Z,30.3288,-87.8293,0.0,63.42,2 
DISL,ioos:station:DISL:BSCA:1,2015-01-06T09:30:00Z,30.3288,-87.8293,0.0,63.81,2 
DISL,ioos:station:DISL:BSCA:1,2015-01-06T10:00:00Z,30.3288,-87.8293,0.0,61.32,2 
DISL,ioos:station:DISL:BSCA:1,2015-01-06T10:30:00Z,30.3288,-87.8293,0.0,14.43,2 
DISL,ioos:station:DISL:BSCA:1,2015-01-06T11:00:00Z,30.3288,-87.8293,0.0,66.96,2 
DISL,ioos:station:DISL:BSCA:1,2015-01-06T11:30:00Z,30.3288,-87.8293,0.0,64.34,2 
DISL,ioos:station:DISL:BSCA:1,2015-01-06T12:00:00Z,30.3288,-87.8293,0.0,55.55,2 
DISL,ioos:station:DISL:BSCA:1,2015-01-06T12:30:00Z,30.3288,-87.8293,0.0,61.4,2 
DISL,ioos:station:DISL:BSCA:1,2015-01-06T13:00:00Z,30.3288,-87.8293,0.0,54.6,2 
DISL,ioos:station:DISL:BSCA:1,2015-01-06T13:30:00Z,30.3288,-87.8293,0.0,56.29,2 
DISL,ioos:station:DISL:BSCA:1,2015-01-06T14:00:00Z,30.3288,-87.8293,0.0,60.36,2 
DISL,ioos:station:DISL:BSCA:1,2015-01-06T14:30:00Z,30.3288,-87.8293,0.0,51.37,2 
DISL,ioos:station:DISL:BSCA:1,2015-01-06T15:00:00Z,30.3288,-87.8293,0.0,53.97,2 
DISL,ioos:station:DISL:BSCA:1,2015-01-06T15:30:00Z,30.3288,-87.8293,0.0,48.87,2 
DISL,ioos:station:DISL:BSCA:1,2015-01-06T16:00:00Z,30.3288,-87.8293,0.0,43.71,2 
DISL,ioos:station:DISL:BSCA:1,2015-01-06T16:30:00Z,30.3288,-87.8293,0.0,67.91,2 
DISL,ioos:station:DISL:BSCA:1,2015-01-06T17:00:00Z,30.3288,-87.8293,0.0,13.94,2 
DISL,ioos:station:DISL:BSCA:1,2015-01-06T17:30:00Z,30.3288,-87.8293,0.0,13.94,2 
DISL,ioos:station:DISL:BSCA:1,2015-01-06T18:00:00Z,30.3288,-87.8293,0.0,14.13,2 
DISL,ioos:station:DISL:BSCA:1,2015-01-06T18:30:00Z,30.3288,-87.8293,0.0,14.3,2 
DISL,ioos:station:DISL:BSCA:1,2015-01-06T19:00:00Z,30.3288,-87.8293,0.0,14.24,2 
DISL,ioos:station:DISL:BSCA:1,2015-01-06T19:30:00Z,30.3288,-87.8293,0.0,14.25,2 
DISL,ioos:station:DISL:BSCA:1,2015-01-06T20:00:00Z,30.3288,-87.8293,0.0,14.31,2 
DISL,ioos:station:DISL:BSCA:1,2015-01-06T20:30:00Z,30.3288,-87.8293,0.0,14.36,2 
DISL,ioos:station:DISL:BSCA:1,2015-01-06T21:00:00Z,30.3288,-87.8293,0.0,14.36,2 
DISL,ioos:station:DISL:BSCA:1,2015-01-06T21:30:00Z,30.3288,-87.8293,0.0,14.38,2 
DISL,ioos:station:DISL:BSCA:1,2015-01-06T22:00:00Z,30.3288,-87.8293,0.0,14.38,2 
DISL,ioos:station:DISL:BSCA:1,2015-01-06T22:30:00Z,30.3288,-87.8293,0.0,14.35,2 
DISL,ioos:station:DISL:BSCA:1,2015-01-06T23:00:00Z,30.3288,-87.8293,0.0,14.38,2 
DISL,ioos:station:DISL:BSCA:1,2015-01-06T23:30:00Z,30.3288,-87.8293,0.0,14.36,2 
DISL,ioos:station:DISL:BSCA:1,2015-01-07T00:00:00Z,30.3288,-87.8293,0.0,14.38,2 
DISL,ioos:station:DISL:BSCA:1,2015-01-07T00:30:00Z,30.3288,-87.8293,0.0,14.38,2 
DISL,ioos:station:DISL:BSCA:1,2015-01-07T01:00:00Z,30.3288,-87.8293,0.0,14.41,2 
DISL,ioos:station:DISL:BSCA:1,2015-01-07T01:30:00Z,30.3288,-87.8293,0.0,14.35,2 
DISL,ioos:station:DISL:BSCA:1,2015-01-07T02:00:00Z,30.3288,-87.8293,0.0,14.38,2 
DISL,ioos:station:DISL:BSCA:1,2015-01-07T02:30:00Z,30.3288,-87.8293,0.0,14.39,2 
DISL,ioos:station:DISL:BSCA:1,2015-01-07T03:00:00Z,30.3288,-87.8293,0.0,14.36,2 